Theta_e
286 289 289 287 287 287 285 285 282 284 287 290 293 293 294 295 296 296 297 298 298 298 298 299 300 300 301 302 302 303 303 303 303 304 304 305 305 305 306 307 308 309 309 310
283 288 287 286 287 287 287 287 286 287 287 293 294 293 294 295 295 295 296 297 298 299 300 299 299 299 300 301 301 301 300 300 302 302 303 303 304 304 304 305 305 306 307 307
280 285 284 280 284 286 286 288 287 283 287 292 292 294 293 293 295 296 296 297 298 298 298 298 298 299 299 299 299 298 298 299 300 300 300 300 301 301 301 301 303 303 304 305
278 280 274 282 290 291 288 291 292 293 293 294 293 295 295 295 295 296 296 297 297 297 297 297 298 298 298 297 297 297 296 297 298 298 297 298 298 298 299 300 300 301 302 303
274 276 281 285 291 290 288 288 295 293 294 295 295 295 294 297 298 297 297 296 296 297 296 296 296 296 296 295 295 295 295 295 296 296 296 296 296 296 296 296 296 297 298 299
282 279 273 284 293 298 294 283 295 295 293 293 293 287 290 299 298 297 297 296 295 296 296 294 295 294 293 293 293 292 293 294 295 295 295 295 295 295 295 295 295 297 297 298
284 281 284 289 294 298 280 282 294 295 295 293 290 292 295 296 295 296 296 296 295 294 293 293 294 293 291 291 290 292 293 293 294 295 294 294 294 294 294 293 295 295 295 296
285 282 278 295 294 288 289 291 295 295 296 294 294 294 294 295 294 295 294 294 294 292 292 293 292 291 290 289 291 292 292 292 292 292 293 293 293 293 293 293 293 293 293 295
284 283 289 294 292 295 294 294 295 294 295 295 294 293 294 293 293 293 293 292 292 290 290 290 290 290 288 289 291 291 291 290 290 291 292 292 291 291 291 292 292 292 292 293
286 288 290 293 295 297 296 295 296 296 295 295 293 294 292 292 291 290 290 289 290 288 287 287 288 289 289 289 290 289 288 288 289 289 290 291 291 292 291 291 291 291 292 293
285 287 289 292 294 296 296 297 297 296 295 294 292 292 291 290 289 289 288 288 287 286 286 286 287 287 289 289 288 287 287 287 288 288 289 290 291 291 292 293 293 292 293 295
280 286 287 289 294 296 295 294 294 293 293 293 292 290 289 287 287 287 286 286 286 285 285 286 287 287 287 288 288 287 286 287 287 288 288 289 289 290 292 292 292 291 291 292
287 291 293 293 295 296 294 294 294 292 291 290 290 289 287 286 286 287 285 285 285 285 286 286 285 285 287 287 287 286 285 285 286 287 287 287 288 288 288 292 292 292 291 291
294 292 292 292 291 292 294 294 294 292 291 290 289 288 287 285 285 285 285 285 285 285 284 284 285 284 286 286 285 285 285 287 286 287 288 288 288 289 289 289 290 291 294 292
294 294 293 296 294 294 293 292 290 289 288 288 287 285 285 284 283 283 285 284 284 283 283 283 283 283 285 285 284 285 286 287 288 289 290 290 290 290 289 291 290 291 296 292
295 295 292 290 291 291 290 289 287 287 287 286 285 285 285 284 283 283 283 283 281 280 282 282 282 283 284 285 285 286 287 288 289 291 293 293 291 289 289 290 290 292 294 295
293 289 291 290 290 290 289 289 288 287 287 285 286 285 283 282 282 281 282 282 282 281 282 282 281 283 285 285 285 286 287 289 289 295 293 292 291 290 290 291 291 294 295 295
292 291 290 290 289 289 288 289 288 287 286 286 285 283 281 281 280 280 280 281 281 281 282 282 283 284 284 285 286 287 288 290 293 295 293 291 291 291 291 292 293 293 294 295
292 290 290 289 288 288 288 288 287 287 286 286 283 280 281 281 280 280 280 280 279 279 280 282 284 283 283 284 286 286 287 289 290 292 293 290 292 292 292 292 292 293 294 295
290 290 290 288 288 288 288 289 287 286 285 284 283 281 281 280 280 279 280 279 280 280 282 282 282 282 283 284 285 285 286 287 288 288 289 291 293 292 292 290 292 294 294 295
289 289 289 287 287 289 289 289 287 286 284 284 282 281 280 280 280 279 278 277 280 282 282 282 282 281 282 283 283 283 284 284 285 286 287 287 289 293 293 293 294 294 296 296
288 288 288 288 288 288 290 288 287 286 284 283 282 282 281 279 279 279 280 279 281 281 282 281 281 281 281 282 282 282 282 282 283 283 284 285 286 287 289 291 294 296 296 297
288 289 290 288 287 287 289 289 286 286 284 283 281 281 280 281 280 278 277 281 281 281 281 281 281 281 281 282 281 281 281 281 281 282 282 283 283 285 286 286 288 290 294 296
289 289 289 289 288 287 285 287 287 286 285 284 283 282 281 280 280 281 281 281 281 281 281 281 281 281 281 281 280 280 280 280 280 280 281 282 282 282 283 284 285 286 288 289
289 288 288 287 286 285 286 287 286 285 285 283 283 282 282 282 280 280 280 280 281 280 280 281 281 281 281 280 280 280 280 280 280 280 280 280 280 281 282 282 283 284 285 286
288 287 287 287 286 286 286 286 284 284 283 282 282 282 282 282 281 281 280 280 280 280 280 280 280 280 280 280 280 280 280 280 280 280 280 280 280 280 281 281 282 282 283 284
288 288 287 286 287 286 286 285 284 283 283 282 281 282 282 281 281 280 280 279 279 279 279 280 279 279 279 279 279 279 279 279 279 279 280 279 280 280 280 281 281 282 283 283
Wind_Speed
2 3 3 4 4 4 6 5 6 4 7 7 8 7 7 4 5 6 6 7 6 5 5 4 5 5 5 5 5 5 6 6 6 6 6 6 6 6 6 7 8 9 11 11
2 2 1 5 7 6 6 5 6 7 13 13 10 3 3 4 4 4 4 4 6 6 4 4 5 6 6 6 5 5 7 9 8 8 8 9 8 9 9 11 11 10 11 12
2 2 3 7 10 9 5 5 6 6 9 2 1 4 5 5 4 1 4 5 5 6 5 6 7 6 5 5 5 7 9 10 10 11 11 11 11 12 12 13 12 13 14 12
2 3 1 4 2 5 7 4 5 3 2 2 2 4 5 4 2 4 5 5 6 5 6 6 3 3 5 6 8 10 12 12 12 12 13 12 11 11 9 8 9 10 12 13
4 2 6 2 2 2 3 5 6 6 3 2 1 2 4 7 5 4 5 6 6 6 6 5 5 6 7 10 10 11 13 13 12 11 12 12 11 11 11 10 10 11 12 15
3 2 5 5 2 2 2 5 4 3 4 3 1 2 5 3 3 7 5 5 6 6 4 5 8 7 10 13 12 14 13 14 13 12 12 12 13 13 12 10 12 10 12 13
3 3 6 6 4 1 5 6 3 3 5 5 6 7 4 4 6 5 5 7 5 5 6 9 8 8 12 14 15 14 13 14 13 12 12 13 13 12 12 12 10 11 13 13
4 3 8 4 2 6 6 2 4 4 5 6 7 7 6 8 7 6 6 5 6 8 11 10 8 7 14 15 14 13 13 14 14 13 11 10 13 12 12 11 12 11 12 11
8 6 4 3 3 4 4 5 4 3 5 6 6 6 7 6 5 5 6 7 6 7 13 11 9 8 13 14 13 14 14 14 13 13 12 11 12 12 10 10 9 10 9 10
2 2 5 6 5 5 5 6 5 5 6 4 7 9 7 6 5 5 6 9 9 10 14 15 11 11 12 14 14 14 15 14 12 12 13 11 9 9 9 9 8 8 9 8
4 5 6 6 6 6 4 5 6 5 4 6 5 5 4 5 7 8 9 9 9 11 13 15 14 14 13 13 13 13 13 12 12 11 11 11 10 9 9 10 9 8 8 7
6 6 4 6 5 4 6 6 5 4 5 2 3 4 5 7 6 8 11 11 12 12 13 14 14 14 13 12 12 12 13 10 10 10 10 9 9 9 12 17 18 14 16 13
4 1 6 9 7 3 3 3 1 4 4 4 4 4 5 9 8 15 11 12 13 14 15 15 14 14 12 12 12 12 13 13 11 12 9 9 8 8 8 6 12 14 14 15
6 3 4 0 3 3 1 1 4 4 4 4 4 5 7 9 12 14 13 14 14 14 14 13 13 14 13 12 13 13 13 21 11 10 10 9 8 7 6 7 4 5 7 8
6 5 4 3 2 3 3 2 4 5 5 5 4 6 9 14 15 14 13 13 13 12 12 12 13 13 13 13 14 14 11 10 10 9 10 11 7 5 5 5 3 5 5 1
5 3 1 3 2 3 3 4 4 5 5 6 8 12 13 11 11 12 11 12 12 11 12 12 13 14 15 13 13 11 10 16 13 9 7 6 2 2 3 2 2 5 3 0
6 3 1 1 2 3 3 2 3 3 5 6 10 10 10 10 10 10 10 10 10 11 11 11 14 14 13 12 12 9 8 9 12 6 6 4 3 2 1 1 4 1 4 2
2 3 5 5 3 3 4 1 3 4 6 9 9 9 9 10 10 10 11 11 10 10 9 12 12 14 12 12 12 8 7 7 7 5 4 5 4 2 1 2 3 3 3 2
5 6 6 6 5 4 5 1 5 6 9 7 7 7 8 8 9 9 10 10 10 11 12 13 20 15 12 14 15 7 7 8 7 7 5 5 4 4 3 3 4 3 3 4
6 5 5 5 6 5 4 7 8 8 8 10 7 7 8 8 8 9 9 9 9 8 12 12 13 11 12 14 17 8 9 9 8 7 7 7 4 4 3 4 3 2 2 4
6 6 6 6 5 6 8 7 7 6 9 9 8 8 8 8 7 8 9 7 12 13 12 16 12 10 9 11 11 9 9 9 9 9 8 8 8 6 4 4 5 3 3 3
5 6 5 7 7 6 5 6 7 7 8 8 9 8 6 8 9 8 6 9 8 14 10 9 10 15 11 13 9 10 10 10 9 9 9 9 8 8 7 7 7 5 3 3
6 6 5 8 6 7 6 5 8 8 8 9 9 9 9 5 6 7 8 12 9 12 9 10 15 17 15 10 10 10 11 12 10 10 9 9 9 8 7 7 7 6 6 5
6 7 6 6 7 7 9 9 7 7 8 8 9 10 9 7 6 7 7 10 14 12 11 13 14 16 15 10 10 11 11 11 11 10 9 12 9 9 8 8 8 8 7 8
7 6 6 6 7 6 7 8 6 6 7 9 9 9 10 8 7 7 8 9 14 12 11 17 17 17 12 11 12 11 11 11 11 10 10 10 10 10 9 9 9 8 7 7
6 5 4 6 5 5 6 6 6 7 6 7 8 8 8 8 8 9 9 12 11 13 11 11 12 12 12 12 13 13 12 12 12 11 11 11 10 10 10 10 10 9 8 8
5 5 4 4 5 5 5 6 6 8 8 7 8 8 8 8 10 10 12 11 11 11 11 11 12 14 13 13 13 13 12 12 14 12 11 11 11 10 10 10 10 9 9 9
Wind_Direction
120 127 136 191 218 200 197 199 183 243 234 252 260 275 304 5 74 64 41 24 5 352 343 354 359 343 333 326 342 350 340 332 317 308 304 301 296 287 279 276 273 260 261 251
71 15 284 269 247 217 228 246 263 267 279 251 267 243 155 126 107 70 24 350 341 325 321 327 319 308 314 331 338 337 321 307 301 297 296 288 277 277 275 274 272 265 256 252
210 17 309 285 232 214 187 195 174 198 233 222 184 194 174 171 143 27 327 310 310 306 294 301 301 312 312 308 306 303 292 289 285 281 279 279 277 276 274 272 270 267 268 260
125 31 258 250 272 210 201 220 190 151 159 161 196 253 219 208 175 294 298 299 302 300 292 291 294 297 295 287 288 287 285 283 281 282 280 281 280 274 273 276 277 276 270 265
123 172 295 290 139 163 160 235 188 177 224 227 293 310 282 223 222 245 264 274 270 274 274 288 289 292 287 289 284 283 284 284 286 284 284 283 276 277 276 272 274 273 273 274
160 183 223 241 228 318 140 281 144 145 222 242 104 308 254 232 282 298 285 272 285 293 297 302 292 286 293 295 290 289 292 293 293 290 284 284 285 284 279 276 277 277 279 276
164 213 272 230 244 20 102 235 183 212 231 217 208 211 237 290 282 263 275 301 310 315 287 283 286 284 287 294 288 292 293 291 285 283 287 287 283 282 281 277 279 279 277 275
161 198 261 163 110 173 210 226 233 239 236 233 240 265 261 268 274 287 294 308 306 295 295 295 288 279 288 287 292 291 288 291 290 289 285 285 279 275 272 273 274 274 277 274
178 211 237 227 200 269 171 218 243 229 264 242 264 265 287 269 288 301 306 297 287 278 298 303 300 284 284 291 295 298 295 293 291 287 281 276 274 272 273 265 258 265 269 269
92 238 220 250 264 245 209 227 258 255 272 290 263 270 278 297 312 308 306 307 309 309 304 302 304 297 291 298 302 300 295 291 290 286 285 275 265 260 258 260 259 262 263 269
260 291 284 265 234 243 273 276 274 306 268 275 302 330 338 318 316 312 306 310 307 301 298 299 304 302 303 304 298 293 291 291 287 281 276 275 266 264 257 253 246 260 271 275
228 244 213 258 302 300 287 290 300 294 320 49 38 354 332 312 298 303 307 308 307 299 298 300 304 303 298 297 296 294 293 292 287 287 282 276 274 275 249 248 254 250 257 254
238 277 236 261 277 277 282 317 47 77 50 16 359 341 312 309 313 313 310 302 305 306 306 307 302 300 304 302 301 298 292 293 290 286 279 276 270 266 277 270 241 271 248 251
267 311 321 202 285 348 113 83 81 84 54 12 335 319 310 313 315 317 312 311 311 310 304 302 304 303 309 311 304 296 288 285 281 280 276 271 263 260 257 267 274 292 252 244
275 196 220 268 88 89 66 50 35 12 356 344 335 323 326 320 318 314 312 312 312 303 305 310 311 310 314 308 298 294 295 291 288 284 280 273 264 251 251 263 266 275 293 173
305 294 39 50 69 44 58 35 22 350 344 331 330 331 327 316 309 310 313 316 320 318 315 316 312 314 310 305 307 303 300 294 292 291 310 329 276 242 267 247 275 276 296 93
345 278 296 318 32 28 36 40 22 349 327 322 333 331 322 322 317 319 321 322 316 313 317 317 316 312 320 319 315 310 305 303 302 310 333 339 345 332 320 267 266 19 20 330
96 77 56 58 55 16 342 16 8 357 341 330 339 329 327 327 327 327 328 325 323 328 325 323 319 332 328 323 325 317 314 320 325 332 348 358 359 14 15 343 49 23 348 25
60 66 63 64 39 3 326 360 52 5 348 341 347 327 321 332 334 330 328 330 340 336 337 333 341 340 333 340 348 333 338 340 348 355 357 353 13 22 36 17 18 11 359 351
51 37 83 62 24 5 16 65 28 10 7 1 351 339 349 350 342 337 336 341 347 334 334 339 345 346 346 348 357 352 356 360 1 1 7 358 12 39 40 33 5 3 359 10
46 35 79 39 19 41 78 51 18 16 11 13 356 354 357 346 347 344 355 355 350 346 352 357 1 359 359 356 4 5 7 7 8 9 9 7 7 14 25 16 15 11 21 7
41 35 82 33 32 39 92 55 29 30 17 16 5 2 359 6 3 355 6 1 346 353 0 7 8 6 3 8 11 13 14 14 13 11 13 12 12 10 9 10 7 357 3 11
46 35 63 46 33 28 42 72 40 25 28 25 15 13 8 9 4 8 16 2 2 4 13 11 6 9 13 18 18 18 16 17 17 15 13 11 8 8 8 7 1 359 4 360
56 48 50 40 36 26 30 34 48 29 31 31 28 22 18 8 23 18 8 4 6 12 20 10 12 16 23 22 22 22 21 18 15 12 14 13 13 11 10 8 8 2 3 5
70 56 45 41 35 23 18 26 40 22 26 29 33 27 24 20 29 10 15 15 15 19 21 17 19 23 25 23 23 22 22 19 16 14 14 15 15 12 12 10 9 5 2 2
72 59 53 48 38 26 19 22 34 31 30 30 31 27 26 25 25 27 24 21 22 22 25 20 21 22 23 22 24 22 19 17 19 18 15 16 15 15 12 11 8 6 2 359
77 60 55 45 34 34 30 32 37 37 32 34 43 34 30 28 29 31 30 26 24 24 25 23 22 21 21 20 22 22 20 19 20 18 17 16 15 13 14 10 8 6 2 3